| time (UTC) | temp C | wind direction | speed KPH | gust KPH | rain 1hr cm | rain 24hr cm | rain mn cm | humidity % | barometer mb |
| 20260507044504 | 9 | 0 | 0.0 | 0.0 | 0.00 | 0.38 | 0.30 | 99 | 1015.2 |
| 20260507043625 | 9 | 0 | 0.0 | 0.0 | 0.00 | 0.38 | 0.30 | 99 | 1015.1 |
| 20260507042725 | 9 | 0 | 0.0 | 0.0 | 0.00 | 0.38 | 0.30 | 99 | 1015.0 |
| 20260507041804 | 9 | 0 | 0.0 | 0.0 | 0.00 | 0.38 | 0.30 | 99 | 1015.0 |
| 20260507040904 | 9 | 0 | 0.0 | 0.0 | 0.00 | 0.38 | 0.30 | 99 | 1014.9 |
| 20260507040004 | 10 | 0 | 0.0 | 0.0 | 0.03 | 0.38 | 0.30 | 99 | 1014.8 |
| 20260507035404 | 10 | 0 | 0.0 | 0.0 | 0.03 | 0.38 | 0.30 | 99 | 1014.7 |
| 20260507034504 | 10 | 0 | 0.0 | 0.0 | 0.10 | 0.38 | 0.30 | 99 | 1014.8 |
| 20260507033604 | 10 | 0 | 0.0 | 0.0 | 0.23 | 0.38 | 0.30 | 99 | 1014.9 |
| 20260507032704 | 10 | 0 | 0.0 | 0.0 | 0.30 | 0.38 | 0.30 | 99 | 1014.9 |
| 20260507031804 | 10 | 0 | 0.0 | 1.6 | 0.30 | 0.38 | 0.30 | 99 | 1014.8 |
| 20260507030904 | 10 | 0 | 0.0 | 1.6 | 0.30 | 0.38 | 0.30 | 99 | 1014.9 |
| 20260507030004 | 11 | 0 | 0.0 | 1.6 | 0.28 | 0.36 | 0.28 | 99 | 1014.9 |
| 20260507025425 | 11 | 0 | 0.0 | 1.6 | 0.28 | 0.36 | 0.28 | 99 | 1014.9 |
| 20260507024504 | 11 | 0 | 0.0 | 1.6 | 0.20 | 0.30 | 0.20 | 99 | 1014.9 |
| 20260507023604 | 11 | 0 | 0.0 | 0.0 | 0.05 | 0.15 | 0.05 | 99 | 1014.9 |
| 20260507022704 | 11 | 0 | 0.0 | 0.0 | 0.00 | 0.10 | 0.00 | 99 | 1014.9 |
| 20260507021804 | 11 | 0 | 0.0 | 0.0 | 0.00 | 0.10 | 0.00 | 99 | 1014.9 |
| 20260507020904 | 11 | 0 | 0.0 | 0.0 | 0.00 | 0.10 | 0.00 | 99 | 1014.9 |
| 20260507020025 | 11 | 0 | 0.0 | 0.0 | 0.00 | 0.10 | 0.00 | 99 | 1014.8 |
| 20260507015403 | 11 | 0 | 0.0 | 0.0 | 0.00 | 0.13 | 0.00 | 99 | 1015.0 |
| 20260507014503 | 11 | 0 | 0.0 | 0.0 | 0.00 | 0.15 | 0.00 | 99 | 1014.7 |
| 20260507013604 | 11 | 0 | 0.0 | 0.0 | 0.00 | 0.18 | 0.00 | 99 | 1014.7 |
| 20260507012703 | 11 | 0 | 0.0 | 0.0 | 0.00 | 0.20 | 0.00 | 99 | 1014.8 |
| 20260507011803 | 12 | 0 | 0.0 | 0.0 | 0.00 | 0.33 | 0.00 | 99 | 1014.8 |
| 20260507010903 | 12 | 0 | 0.0 | 1.6 | 0.00 | 0.33 | 0.00 | 99 | 1014.8 |
| 20260507010003 | 12 | 0 | 0.0 | 1.6 | 0.00 | 0.33 | 0.00 | 99 | 1014.8 |
| 20260507005403 | 12 | 0 | 0.0 | 0.0 | 0.00 | 0.33 | 0.00 | 99 | 1014.8 |
| 20260507004503 | 12 | 58 | 0.0 | 3.2 | 0.00 | 0.33 | 0.00 | 99 | 1014.8 |
| 20260507003603 | 13 | 0 | 0.0 | 0.0 | 0.00 | 0.33 | 0.00 | 99 | 1014.6 |
| 20260507002703 | 13 | 0 | 0.0 | 0.0 | 0.00 | 0.33 | 0.00 | 99 | 1014.6 |
| 20260507001803 | 13 | 0 | 0.0 | 0.0 | 0.00 | 0.33 | 0.00 | 99 | 1014.7 |
| 20260507000924 | 13 | 0 | 0.0 | 0.0 | 0.00 | 0.33 | 0.00 | 99 | 1014.7 |
| 20260507000003 | 13 | 0 | 0.0 | 0.0 | 0.00 | 0.33 | 0.00 | 99 | 1014.8 |
| 20260506235403 | 13 | 0 | 0.0 | 0.0 | 0.00 | 0.33 | 0.00 | 99 | 1014.9 |
| 20260506234503 | 13 | 0 | 0.0 | 0.0 | 0.00 | 0.33 | 0.00 | 99 | 1014.9 |
| 20260506233607 | 13 | 0 | 0.0 | 0.0 | 0.00 | 0.33 | 0.00 | 99 | 1014.8 |
| 20260506232707 | 13 | 0 | 0.0 | 0.0 | 0.00 | 0.33 | 0.00 | 99 | 1014.8 |
| 20260506231807 | 13 | 0 | 0.0 | 0.0 | 0.00 | 0.33 | 0.00 | 99 | 1014.9 |
| 20260506230907 | 13 | 0 | 0.0 | 0.0 | 0.00 | 0.33 | 0.00 | 99 | 1014.8 |
| 20260506230007 | 13 | 0 | 0.0 | 1.6 | 0.00 | 0.33 | 0.00 | 99 | 1015.0 |
| 20260506225407 | 13 | 0 | 0.0 | 1.6 | 0.00 | 0.33 | 0.00 | 99 | 1015.0 |
| 20260506224507 | 13 | 0 | 0.0 | 0.0 | 0.00 | 0.33 | 0.00 | 99 | 1015.1 |
| 20260506223607 | 13 | 0 | 0.0 | 0.0 | 0.00 | 0.33 | 0.00 | 99 | 1015.0 |
| 20260506222707 | 13 | 0 | 0.0 | 1.6 | 0.00 | 0.33 | 0.00 | 99 | 1015.0 |
| 20260506221807 | 13 | 90 | 0.0 | 3.2 | 0.00 | 0.33 | 0.00 | 99 | 1015.0 |
| 20260506220906 | 13 | 0 | 0.0 | 3.2 | 0.00 | 0.33 | 0.00 | 99 | 1015.0 |
| 20260506220007 | 13 | 96 | 0.0 | 3.2 | 0.00 | 0.33 | 0.00 | 99 | 1014.9 |
| 20260506215406 | 13 | 86 | 0.0 | 3.2 | 0.00 | 0.33 | 0.33 | 99 | 1015.0 |
| 20260506214506 | 13 | 74 | 0.0 | 3.2 | 0.00 | 0.33 | 0.33 | 99 | 1015.0 |
| 20260506213628 | 13 | 140 | 0.0 | 3.2 | 0.00 | 0.33 | 0.33 | 99 | 1015.0 |
| 20260506212706 | 13 | 115 | 0.0 | 3.2 | 0.00 | 0.33 | 0.33 | 99 | 1014.9 |
| 20260506211807 | 13 | 85 | 0.0 | 3.2 | 0.00 | 0.33 | 0.33 | 99 | 1015.0 |
| 20260506210906 | 13 | 88 | 0.0 | 4.8 | 0.00 | 0.33 | 0.33 | 99 | 1015.0 |
| 20260506210007 | 14 | 99 | 0.0 | 3.2 | 0.00 | 0.33 | 0.33 | 99 | 1015.0 |
| 20260506205406 | 14 | 118 | 0.0 | 3.2 | 0.00 | 0.33 | 0.33 | 99 | 1014.9 |
| 20260506204507 | 14 | 74 | 0.0 | 3.2 | 0.00 | 0.33 | 0.33 | 99 | 1014.8 |
| 20260506203607 | 14 | 105 | 0.0 | 3.2 | 0.00 | 0.33 | 0.33 | 99 | 1014.8 |
| 20260506202727 | 14 | 90 | 0.0 | 3.2 | 0.00 | 0.33 | 0.33 | 99 | 1014.8 |
| 20260506201806 | 14 | 0 | 0.0 | 0.0 | 0.00 | 0.33 | 0.33 | 99 | 1014.6 |
| 20260506200906 | 14 | 0 | 0.0 | 0.0 | 0.00 | 0.33 | 0.33 | 99 | 1014.6 |
| 20260506200028 | 13 | 0 | 0.0 | 1.6 | 0.00 | 0.33 | 0.33 | 99 | 1014.6 |
| 20260506195406 | 14 | 88 | 0.0 | 3.2 | 0.00 | 0.33 | 0.33 | 99 | 1014.5 |
| 20260506194506 | 14 | 113 | 0.0 | 4.8 | 0.00 | 0.33 | 0.33 | 99 | 1014.1 |
| 20260506193607 | 14 | 0 | 0.0 | 0.0 | 0.00 | 0.33 | 0.33 | 99 | 1014.2 |
| 20260506192706 | 14 | 108 | 0.0 | 4.8 | 0.00 | 0.33 | 0.33 | 99 | 1014.1 |
| 20260506191806 | 14 | 92 | 0.0 | 4.8 | 0.00 | 0.33 | 0.33 | 99 | 1013.9 |
| 20260506190906 | 14 | 0 | 0.0 | 1.6 | 0.00 | 0.33 | 0.33 | 99 | 1013.8 |
| 20260506190007 | 14 | 93 | 0.0 | 3.2 | 0.00 | 0.33 | 0.33 | 99 | 1013.7 |
| 20260506185407 | 14 | 122 | 0.0 | 3.2 | 0.00 | 0.33 | 0.33 | 99 | 1013.6 |
| 20260506184507 | 14 | 65 | 0.0 | 3.2 | 0.00 | 0.33 | 0.33 | 99 | 1013.4 |
| 20260506183606 | 14 | 93 | 0.0 | 4.8 | 0.00 | 0.33 | 0.33 | 99 | 1013.6 |
| 20260506182727 | 14 | 88 | 1.6 | 4.8 | 0.00 | 0.33 | 0.33 | 99 | 1013.4 |
| 20260506181806 | 15 | 0 | 0.0 | 1.6 | 0.00 | 0.33 | 0.33 | 98 | 1013.5 |
| 20260506180906 | 15 | 90 | 1.6 | 4.8 | 0.00 | 0.33 | 0.33 | 98 | 1013.5 |
| 20260506180006 | 15 | 88 | 0.0 | 4.8 | 0.00 | 0.33 | 0.33 | 97 | 1013.3 |
| 20260506175406 | 15 | 65 | 1.6 | 6.4 | 0.00 | 0.33 | 0.33 | 97 | 1013.3 |
| 20260506174506 | 15 | 69 | 0.0 | 6.4 | 0.00 | 0.33 | 0.33 | 97 | 1013.3 |
| 20260506173606 | 15 | 86 | 1.6 | 6.4 | 0.00 | 0.33 | 0.33 | 96 | 1013.3 |
| 20260506172706 | 15 | 114 | 1.6 | 6.4 | 0.00 | 0.33 | 0.33 | 96 | 1013.2 |
| 20260506171806 | 15 | 104 | 1.6 | 6.4 | 0.00 | 0.33 | 0.33 | 95 | 1013.1 |
| 20260506170906 | 15 | 71 | 1.6 | 9.7 | 0.00 | 0.33 | 0.33 | 95 | 1013.2 |
| 20260506170006 | 15 | 67 | 1.6 | 4.8 | 0.03 | 0.33 | 0.33 | 95 | 1013.1 |
| 20260506165406 | 15 | 94 | 1.6 | 6.4 | 0.03 | 0.33 | 0.33 | 95 | 1013.2 |
| 20260506164506 | 15 | 43 | 1.6 | 6.4 | 0.03 | 0.33 | 0.33 | 95 | 1013.3 |
| 20260506163606 | 16 | 78 | 1.6 | 4.8 | 0.03 | 0.33 | 0.33 | 94 | 1013.1 |
| 20260506162706 | 16 | 46 | 1.6 | 6.4 | 0.03 | 0.33 | 0.33 | 93 | 1013.2 |
| 20260506161827 | 16 | 61 | 3.2 | 8.0 | 0.03 | 0.33 | 0.33 | 92 | 1013.3 |
| 20260506160905 | 16 | 55 | 1.6 | 4.8 | 0.03 | 0.33 | 0.33 | 92 | 1013.2 |
| 20260506160006 | 16 | 87 | 1.6 | 8.0 | 0.00 | 0.30 | 0.30 | 92 | 1013.2 |
| 20260506155405 | 16 | 40 | 1.6 | 6.4 | 0.00 | 0.30 | 0.30 | 92 | 1013.1 |
| 20260506154527 | 16 | 67 | 1.6 | 6.4 | 0.00 | 0.30 | 0.30 | 91 | 1013.2 |
| 20260506153605 | 17 | 81 | 1.6 | 6.4 | 0.00 | 0.30 | 0.30 | 91 | 1013.3 |
| 20260506152706 | 17 | 83 | 1.6 | 6.4 | 0.00 | 0.30 | 0.30 | 93 | 1013.3 |
| 20260506151805 | 16 | 114 | 1.6 | 6.4 | 0.00 | 0.30 | 0.30 | 93 | 1013.4 |
| 20260506150905 | 16 | 89 | 1.6 | 4.8 | 0.00 | 0.30 | 0.30 | 94 | 1013.3 |
| 20260506150005 | 16 | 76 | 0.0 | 4.8 | 0.00 | 0.30 | 0.30 | 95 | 1013.2 |
| 20260506145426 | 16 | 106 | 0.0 | 3.2 | 0.00 | 0.33 | 0.30 | 95 | 1013.4 |
| 20260506144505 | 16 | 61 | 1.6 | 6.4 | 0.00 | 0.36 | 0.30 | 95 | 1013.2 |
| 20260506143626 | 16 | 110 | 1.6 | 6.4 | 0.00 | 0.36 | 0.30 | 96 | 1013.3 |
| 20260506142705 | 16 | 93 | 1.6 | 4.8 | 0.00 | 0.38 | 0.30 | 94 | 1013.2 |
| 20260506141805 | 16 | 91 | 1.6 | 6.4 | 0.00 | 0.38 | 0.30 | 93 | 1013.4 |
| 20260506140905 | 16 | 84 | 0.0 | 3.2 | 0.00 | 0.43 | 0.30 | 93 | 1013.2 |
| 20260506140005 | 16 | 78 | 1.6 | 8.0 | 0.00 | 0.43 | 0.30 | 94 | 1013.4 |
| 20260506135405 | 16 | 59 | 1.6 | 8.0 | 0.00 | 0.51 | 0.30 | 95 | 1013.3 |
| 20260506134505 | 16 | 92 | 0.0 | 3.2 | 0.00 | 0.66 | 0.30 | 96 | 1013.4 |
| 20260506133605 | 16 | 49 | 1.6 | 6.4 | 0.03 | 0.69 | 0.30 | 95 | 1013.4 |
| 20260506132705 | 16 | 67 | 1.6 | 4.8 | 0.03 | 0.69 | 0.30 | 96 | 1013.5 |
| 20260506131805 | 16 | 90 | 0.0 | 3.2 | 0.03 | 0.69 | 0.30 | 95 | 1013.5 |
| 20260506130905 | 16 | 77 | 0.0 | 4.8 | 0.03 | 0.69 | 0.30 | 94 | 1013.8 |
| 20260506130026 | 16 | 82 | 1.6 | 4.8 | 0.03 | 0.69 | 0.30 | 93 | 1013.8 |
| 20260506125426 | 16 | 90 | 1.6 | 6.4 | 0.03 | 0.69 | 0.30 | 92 | 1013.8 |
| 20260506124505 | 16 | 64 | 3.2 | 14.5 | 0.03 | 0.69 | 0.30 | 91 | 1014.0 |
| 20260506123605 | 16 | 271 | 3.2 | 14.5 | 0.00 | 0.66 | 0.28 | 92 | 1014.0 |
| 20260506122705 | 16 | 13 | 3.2 | 6.4 | 0.00 | 0.66 | 0.28 | 96 | 1014.0 |
| 20260506121805 | 16 | 111 | 3.2 | 6.4 | 0.00 | 0.66 | 0.28 | 98 | 1014.0 |
| 20260506120905 | 16 | 351 | 3.2 | 6.4 | 0.00 | 0.66 | 0.28 | 99 | 1014.0 |
| 20260506120005 | 15 | 17 | 3.2 | 8.0 | 0.00 | 0.66 | 0.28 | 99 | 1013.8 |
| 20260506115405 | 15 | 76 | 1.6 | 6.4 | 0.00 | 0.66 | 0.28 | 99 | 1013.8 |
| 20260506114505 | 15 | 125 | 1.6 | 6.4 | 0.00 | 0.66 | 0.28 | 99 | 1013.9 |
| 20260506113605 | 15 | 70 | 1.6 | 6.4 | 0.00 | 0.66 | 0.28 | 99 | 1014.0 |
| 20260506112705 | 15 | 63 | 1.6 | 6.4 | 0.00 | 0.66 | 0.28 | 99 | 1013.9 |
| 20260506111805 | 15 | 82 | 1.6 | 4.8 | 0.00 | 0.66 | 0.28 | 98 | 1014.1 |
| 20260506110905 | 15 | 58 | 1.6 | 4.8 | 0.00 | 0.66 | 0.28 | 98 | 1014.1 |
| 20260506110005 | 14 | 76 | 1.6 | 4.8 | 0.00 | 0.66 | 0.28 | 96 | 1014.0 |
| 20260506105405 | 14 | 93 | 1.6 | 6.4 | 0.00 | 0.66 | 0.28 | 95 | 1014.0 |
| 20260506104505 | 15 | 89 | 1.6 | 4.8 | 0.00 | 0.66 | 0.28 | 95 | 1014.1 |
| 20260506103626 | 15 | 113 | 1.6 | 4.8 | 0.00 | 0.66 | 0.28 | 94 | 1014.2 |
| 20260506102705 | 15 | 79 | 1.6 | 6.4 | 0.00 | 0.69 | 0.28 | 93 | 1014.1 |
| 20260506101804 | 15 | 99 | 3.2 | 6.4 | 0.00 | 0.69 | 0.28 | 91 | 1014.2 |
| 20260506100904 | 15 | 169 | 3.2 | 6.4 | 0.00 | 0.69 | 0.28 | 90 | 1014.1 |
| 20260506100005 | 16 | 165 | 3.2 | 6.4 | 0.00 | 0.69 | 0.28 | 89 | 1014.1 |
| 20260506095426 | 16 | 80 | 3.2 | 6.4 | 0.00 | 0.69 | 0.28 | 90 | 1014.1 |
| 20260506094504 | 17 | 83 | 3.2 | 8.0 | 0.00 | 0.69 | 0.28 | 94 | 1013.9 |
| 20260506093605 | 17 | 84 | 3.2 | 9.7 | 0.00 | 0.69 | 0.28 | 99 | 1013.8 |
| 20260506092704 | 16 | 90 | 3.2 | 12.9 | 0.00 | 0.69 | 0.28 | 99 | 1013.6 |
| 20260506091825 | 16 | 93 | 3.2 | 9.7 | 0.00 | 0.69 | 0.28 | 99 | 1013.3 |
| 20260506090904 | 15 | 83 | 3.2 | 11.3 | 0.00 | 0.69 | 0.28 | 99 | 1013.3 |
| 20260506090004 | 15 | 29 | 3.2 | 6.4 | 0.00 | 0.69 | 0.28 | 99 | 1013.4 |
| 20260506085427 | 14 | 25 | 3.2 | 6.4 | 0.00 | 0.71 | 0.28 | 99 | 1013.5 |
| 20260506084504 | 15 | 68 | 1.6 | 9.7 | 0.00 | 0.71 | 0.28 | 99 | 1013.4 |
| 20260506083604 | 15 | 53 | 3.2 | 14.5 | 0.00 | 0.71 | 0.28 | 99 | 1013.5 |
| 20260506082704 | 15 | 192 | 3.2 | 8.0 | 0.00 | 0.71 | 0.28 | 99 | 1013.5 |
| 20260506081825 | 15 | 35 | 3.2 | 12.9 | 0.00 | 0.71 | 0.28 | 99 | 1013.3 |
| 20260506080904 | 14 | 27 | 4.8 | 6.4 | 0.00 | 0.71 | 0.28 | 99 | 1013.3 |
| 20260506072704 | 13 | 103 | 3.2 | 8.0 | 0.00 | 0.76 | 0.28 | 99 | 1013.3 |
| 20260506071804 | 13 | 65 | 3.2 | 8.0 | 0.00 | 0.79 | 0.28 | 99 | 1013.2 |
| 20260506070904 | 13 | 116 | 3.2 | 8.0 | 0.03 | 0.81 | 0.28 | 99 | 1013.3 |
| 20260506061804 | 13 | 114 | 1.6 | 8.0 | 0.03 | 0.86 | 0.28 | 99 | 1013.1 |
| 20260506060904 | 13 | 316 | 3.2 | 6.4 | 0.00 | 0.84 | 0.23 | 99 | 1013.2 |
| 20260506050904 | 13 | 90 | 1.6 | 6.4 | 0.00 | 0.86 | 0.23 | 99 | 1013.0 |